Stations météo

réclame
Mon MeteoGroup
Landsort, Suède (2582): Température de l'air & dewpoint: 01.08.2020 16:00:00 - 07.08.2020 16:00:00 (CEST)Landsort, Suède (2582): Vitesse du vent & gusts: 01.08.2020 16:00:00 - 07.08.2020 16:00:00 (CEST)Landsort, Suède (2582): Direction du vent: 01.08.2020 16:00:00 - 07.08.2020 16:00:00 (CEST)Landsort, Suède (2582): reduced air pressure: 01.08.2020 16:00:00 - 07.08.2020 16:00:00 (CEST)Landsort, Suède (2582): visibility: 01.08.2020 16:00:00 - 07.08.2020 16:00:00 (CEST)Landsort, Suède (2582): Quantités de précipitations: 01.08.2020 16:00:00 - 07.08.2020 16:00:00 (CEST)
Date & Time tt [°C] td [°C] ff [km/h] ff [knt] fx [km/h] fx [knt] dd ppp [hPa] vv [km] rr [mm]
07.08.2020 16:00:00 18,9 15,4 18 10 26 14 S 1026,6 43 0,0
07.08.2020 15:00:00 19,5 15,4 18 10 24 13 SSW 1026,9 45 0,0
07.08.2020 14:00:00 20,4 15,2 14 8 22 12 SSW 1027,1 37 0,0
07.08.2020 13:00:00 20,3 15,9 13 7 23 12 SSW 1027,2 30 0,0
07.08.2020 12:00:00 20,3 15,5 12 7 19 11 SW 1027,1 34 0,0
07.08.2020 11:00:00 19,8 15,2 13 7 22 12 SW 1026,9 36 0,0
07.08.2020 10:00:00 19,4 15,5 10 6 18 10 SW 1026,7 33 0,0
07.08.2020 09:00:00 18,5 15,6 6 3 10 6 SSE 1026,8 28 0,0
07.08.2020 08:00:00 17,7 15,7 9 5 13 7 S 1026,6 30 0,0
07.08.2020 07:00:00 17,4 15,9 11 6 13 7 SSE 1026,4 22 0,0
07.08.2020 06:00:00 16,7 15,6 8 5 13 7 SSE 1026,1 15 0,0
07.08.2020 05:00:00 16,9 15,8 10 5 13 7 S 1025,8 18 0,0
07.08.2020 04:00:00 17,0 15,5 6 3 9 5 S 1025,6 20 0,0
07.08.2020 03:00:00 17,0 15,2 4 2 6 3 S 1025,5 29 0,0
07.08.2020 02:00:00 18,1 15,4 4 2 9 5 W 1025,5 38 0,0
07.08.2020 01:00:00 18,0 15,4 8 4 9 5 W 1025,3 44 0,0
07.08.2020 00:00:00 17,7 15,7 6 4 12 7 W 1025,1 36 0,0
06.08.2020 23:00:00 17,8 15,8 6 4 15 8 WSW 1024,6 32 0,0
06.08.2020 22:00:00 17,5 15,7 10 5 14 8 SSW 1024,2 32 0,0
06.08.2020 21:00:00 17,2 15,5 10 5 13 7 S 1023,8 29 0,0
06.08.2020 20:00:00 17,1 15,4 8 4 11 6 SSE 1023,6 25 0,0
06.08.2020 19:00:00 18,1 15,7 10 5 15 8 S 1023,4 38 0,0
06.08.2020 18:00:00 19,5 15,8 12 6 21 11 S 1023,2 42 0,0
06.08.2020 17:00:00 19,7 15,3 16 9 27 15 SSW 1023,1 43 0,0
06.08.2020 16:00:00 19,1 15,8 19 11 28 15 SSW 1022,8 35 0,0
06.08.2020 15:00:00 18,9 15,4 18 10 25 13 SSW 1022,4 47 0,0
06.08.2020 14:00:00 19,8 16,1 15 8 25 13 SW 1022,3 33 0,0
06.08.2020 13:00:00 18,1 15,4 16 9 27 14 SW 1022,0 27 0,0
06.08.2020 12:00:00 17,9 15,2 15 8 27 15 SW 1021,6 30 0,0
06.08.2020 11:00:00 17,4 14,9 22 12 30 16 SW 1021,3 30 0,0
06.08.2020 10:00:00 17,2 14,8 22 12 30 16 SW 1020,7 33 0,0
06.08.2020 09:00:00 17,2 14,7 21 11 29 15 SW 1020,1 39 0,0
06.08.2020 08:00:00 17,0 14,5 20 11 29 16 SW 1019,5 41 0,0
06.08.2020 07:00:00 16,8 14,3 17 9 31 17 SW 1018,7 44 0,0
06.08.2020 06:00:00 16,6 14,2 25 14 34 19 SW 1018,2 40 0,0
06.08.2020 05:00:00 16,7 14,2 20 11 33 18 SW 1017,9 40 0,0
06.08.2020 04:00:00 17,0 14,3 29 16 39 21 WSW 1017,5 41 0,0
06.08.2020 03:00:00 16,8 14,3 21 12 31 17 SW 1017,3 36 0,0
06.08.2020 02:00:00 16,9 14,5 19 10 36 20 SSW 1016,9 32 0,0
06.08.2020 01:00:00 16,9 14,2 21 12 39 21 SW 1016,8 39 0,0
06.08.2020 00:00:00 17,0 13,9 22 12 36 20 SW 1016,7 50 0,0
05.08.2020 23:00:00 17,2 13,7 24 13 35 19 SW 1016,6 50 0,0
05.08.2020 22:00:00 16,6 13,3 17 9 23 12 S 1016,6 50 0,0
05.08.2020 21:00:00 17,2 12,1 17 9 26 14 SW 1016,4 50 0,0
05.08.2020 20:00:00 16,8 13,3 14 8 22 12 SSW 1016,2 50 0,0
05.08.2020 19:00:00 16,8 13,3 16 9 29 15 SW 1016,2 50 0,0
05.08.2020 18:00:00 17,0 13,5 18 10 35 19 SW 1015,9 45 0,0
05.08.2020 17:00:00 17,0 13,5 24 13 32 17 SSW 1015,8 40 0,0
05.08.2020 16:00:00 17,1 13,2 24 13 32 18 SSW 1015,7 44 0,0
05.08.2020 15:00:00 17,5 12,8 20 11 35 19 SSW 1015,5 39 0,0
05.08.2020 14:00:00 18,2 11,7 23 13 38 21 SSW 1015,5 34 0,0
05.08.2020 13:00:00 17,6 11,6 22 12 37 20 SW 1015,5 36 0,0
05.08.2020 12:00:00 16,7 10,5 19 10 30 16 SW 1015,5 46 0,0
05.08.2020 11:00:00 16,0 10,3 24 13 31 17 WSW 1015,5 50 0,0
05.08.2020 10:00:00 15,6 10,1 20 11 27 15 SW 1015,3 47 0,0
05.08.2020 09:00:00 15,4 8,9 18 10 25 14 WSW 1015,1 41 0,0
05.08.2020 08:00:00 14,8 8,7 20 11 25 13 W 1014,7 50 0,0
05.08.2020 07:00:00 14,7 9,1 18 10 30 16 W 1014,4 50 0,0
05.08.2020 06:00:00 14,3 8,7 26 14 36 19 W 1013,8 48 0,0
05.08.2020 05:00:00 14,6 9,4 23 13 34 19 WNW 1013,4 50 0,0
05.08.2020 04:00:00 14,9 9,9 21 11 38 20 WNW 1012,9 50 0,0
05.08.2020 03:00:00 15,6 9,7 19 10 36 19 WNW 1012,5 50 0,0
05.08.2020 02:00:00 16,3 11,7 14 8 22 12 WNW 1012,0 50 0,0
05.08.2020 01:00:00 16,1 13,0 7 4 13 7 W 1011,5 50 0,0
05.08.2020 00:00:00 16,6 12,1 10 5 16 9 W 1011,5 50 0,0
04.08.2020 23:00:00 16,5 12,3 7 4 23 12 W 1011,4 50 0,0
04.08.2020 22:00:00 16,7 14,0 20 11 26 14 WSW 1011,1 45 0,0
04.08.2020 21:00:00 16,6 14,4 12 6 21 11 SW 1010,7 41 0,0
04.08.2020 20:00:00 17,0 13,9 16 9 25 14 SW 1010,4 46 0,0
04.08.2020 19:00:00 17,4 14,1 18 10 25 13 SW 1010,0 39 0,0
04.08.2020 18:00:00 17,7 14,2 15 8 22 12 SW 1009,8 37 0,0
04.08.2020 17:00:00 17,8 14,3 15 8 22 12 SW 1009,7 37 0,0
04.08.2020 16:00:00 17,8 13,9 16 8 22 12 SSW 1009,7 34 0,0
04.08.2020 15:00:00 18,2 13,1 13 7 22 12 SW 1009,6 34 0,0
04.08.2020 14:00:00 18,2 12,6 14 8 20 11 SW 1009,6 46 0,0
04.08.2020 13:00:00 18,5 12,7 11 6 16 9 SW 1009,6 44 0,0
04.08.2020 12:00:00 17,2 13,1 12 7 16 8 WSW 1009,5 35 0,0
04.08.2020 11:00:00 16,6 12,1 9 5 13 7 WSW 1009,3 37 0,0
04.08.2020 10:00:00 16,1 11,7 9 5 14 8 W 1009,3 42 0,0
04.08.2020 09:00:00 15,4 11,6 10 5 14 7 W 1009,1 41 0,0
04.08.2020 08:00:00 15,4 11,6 8 5 16 8 W 1008,9 38 0,0
04.08.2020 07:00:00 14,9 10,9 9 5 19 10 WNW 1008,8 48 0,0
04.08.2020 06:00:00 14,8 11,0 14 8 22 12 NW 1008,5 50 0,0
04.08.2020 05:00:00 14,8 10,2 16 9 25 13 NW 1008,2 50 0,0
04.08.2020 04:00:00 15,4 10,6 16 9 26 14 WNW 1008,6 50 0,0
04.08.2020 03:00:00 15,8 11,2 16 9 25 13 WNW 1008,5 50 0,0
04.08.2020 02:00:00 16,3 11,0 18 10 23 12 WNW 1008,6 50 0,0
04.08.2020 01:00:00 16,5 12,1 14 8 20 11 WNW 1008,3 50 0,0
04.08.2020 00:00:00 16,5 13,0 15 8 22 12 W 1007,8 50 0,0
03.08.2020 23:00:00 16,7 12,8 16 9 23 12 WSW 1007,6 50 0,0
03.08.2020 22:00:00 16,3 14,0 17 9 26 14 SW 1007,5 46 0,0
03.08.2020 21:00:00 16,7 14,2 21 12 30 16 SW 1007,2 44 0,0
03.08.2020 20:00:00 17,2 14,1 19 11 30 16 SSW 1006,9 44 0,0
03.08.2020 19:00:00 17,3 14,2 23 13 34 18 SSW 1006,7 39 0,0
03.08.2020 18:00:00 17,4 14,1 24 13 31 17 SSW 1006,7 45 0,0
03.08.2020 17:00:00 18,0 13,5 21 12 34 18 SSW 1006,9 40 0,0
03.08.2020 16:00:00 17,8 13,1 24 13 32 17 SSW 1007,0 29 0,0
03.08.2020 15:00:00 17,6 12,5 22 12 31 17 SSW 1007,2 35 0,0
03.08.2020 14:00:00 17,6 12,3 20 11 29 16 SSW 1007,3 39 0,0
03.08.2020 13:00:00 17,6 12,1 16 9 29 16 SW 1007,2 26 0,0
03.08.2020 12:00:00 16,7 11,4 23 12 37 20 WSW 1007,2 26 0,0
03.08.2020 11:00:00 16,4 12,0 26 14 37 20 WSW 1007,0 26 0,0
03.08.2020 10:00:00 16,0 12,4 21 12 35 19 WSW 1006,9 33 0,0
03.08.2020 09:00:00 15,3 12,4 26 14 32 17 WSW 1007,1 37 0,0
03.08.2020 08:00:00 15,2 12,9 27 14 32 18 W 1007,0 33 0,0
03.08.2020 07:00:00 15,0 13,0 25 14 31 17 WSW 1006,9 30 0,0
03.08.2020 06:00:00 15,0 13,0 21 11 31 17 WSW 1006,8 38 0,0
03.08.2020 05:00:00 15,0 13,2 20 11 25 13 WSW 1006,8 44 0,0
03.08.2020 04:00:00 15,1 13,3 19 10 25 13 WSW 1006,8 50 0,0
03.08.2020 03:00:00 15,5 13,5 18 10 30 16 W 1006,9 50 0,0
03.08.2020 02:00:00 16,0 14,7 15 8 22 12 W 1006,9 20 0,0
03.08.2020 01:00:00 16,7 15,6 23 12 30 16 WNW 1006,8 30 0,0
03.08.2020 00:00:00 15,6 14,8 11 6 19 10 WSW 1006,4 9 0,0
02.08.2020 23:00:00 16,2 15,4 14 8 26 14 SW 1006,5 10 0,0
02.08.2020 22:00:00 16,2 15,2 20 11 29 16 SW 1006,7 12 0,0
02.08.2020 21:00:00 16,3 14,8 21 11 39 21 SSW 1006,8 17 0,0
02.08.2020 20:00:00 16,4 14,9 26 14 39 21 SSW 1006,8 14 0,0
02.08.2020 19:00:00 16,6 14,8 23 12 38 21 SSW 1007,2 17 0,0
02.08.2020 18:00:00 16,8 14,4 32 17 40 22 S 1007,6 29 0,0
02.08.2020 17:00:00 17,1 14,0 29 16 37 20 S 1008,1 37 0,0
02.08.2020 16:00:00 17,4 13,7 29 16 36 20 S 1008,7 44 0,0
02.08.2020 15:00:00 18,2 14,1 25 13 33 18 SSW 1009,4 34 0,0
02.08.2020 14:00:00 17,4 14,3 24 13 32 17 S 1010,0 38 0,0
02.08.2020 13:00:00 17,9 14,6 19 11 28 15 S 1010,2 32 0,0
02.08.2020 12:00:00 17,9 13,6 21 11 29 15 SSW 1010,7 47 0,0
02.08.2020 11:00:00 17,8 13,9 19 10 29 16 SSW 1011,1 37 0,0
02.08.2020 10:00:00 17,6 13,9 17 9 28 15 SSW 1011,2 40 0,0
02.08.2020 09:00:00 17,1 14,4 19 10 28 15 SW 1011,5 35 0,0
02.08.2020 08:00:00 17,2 14,7 19 10 29 15 SSW 1011,7 41 0,0
02.08.2020 07:00:00 16,4 14,2 18 10 25 14 SSW 1012,1 50 0,0
02.08.2020 06:00:00 16,2 14,2 16 9 23 13 SSW 1012,3 50 0,0
02.08.2020 05:00:00 16,0 14,4 18 10 23 12 S 1012,6 49 0,0
02.08.2020 04:00:00 16,2 14,6 18 10 23 12 S 1013,1 49 0,0
02.08.2020 03:00:00 15,8 14,7 15 8 20 11 S 1013,4 36 0,0
02.08.2020 02:00:00 15,7 14,7 12 7 17 9 S 1014,1 31 0,0
02.08.2020 01:00:00 15,8 15,0 13 7 17 9 S 1014,7 17 0,0
02.08.2020 00:00:00 15,9 14,9 10 5 14 8 S 1015,1 23 0,0
01.08.2020 23:00:00 15,8 14,7 10 5 16 9 S 1015,3 28 0,0
01.08.2020 22:00:00 15,8 14,7 10 6 15 8 S 1015,8 20 0,0
01.08.2020 21:00:00 16,1 14,8 10 5 16 9 S 1015,9 27 0,0
01.08.2020 20:00:00 16,5 14,7 11 6 16 9 S 1016,2 41 0,0
01.08.2020 19:00:00 17,1 14,7 13 7 16 9 S 1016,5 38 0,0
01.08.2020 18:00:00 17,6 14,7 13 7 16 9 SSE 1017,0 43 0,0
01.08.2020 17:00:00 17,8 14,5 12 7 15 8 SSE 1017,2 44 0,0
01.08.2020 16:00:00 18,1 14,0 11 6 16 9 SSE 1017,5 43 0,0

tt = Température de l'air
td = dewpoint
ff = Vitesse du vent
fx = gusts
dd = Direction du vent
ppp = reduced air pressure
vv = visibility
rr = Quantités de précipitations

stations d'obs. à proximité